User: anonymous   Login
Location: Obersdorf
(47.4079°N, 10.2781°E)
Time: 04:58:35
(UTC+01:00)
Language:

Max Valier Satellite - Orbit

View from above orbital plane
View from above orbital plane
View from above satellite
View from above satellite

Ground track
Ground track

The orbit data is extracted from the following two-line orbital elements,

1 42778U 17036P   21339.61382351  .00002501  00000-0  10475-3 0  9990
2 42778  97.2337  22.4789 0009955 295.6357  64.3852 15.24395342247355
Epoch (UTC): 05 December 2021 14:43:54
Eccentricity: 0.0009955
inclination: 97.2337°
perigee height: 486 km
apogee height: 499 km
right ascension of ascending node: 22.4789°
argument of perigee: 295.6357°
revolutions per day: 15.24395342
mean anomaly at epoch: 64.3852°
orbit number at epoch: 24735

The dashed part of the orbit path shows where the satellite is in the earth's shadow,  

DLR